SCP
2 1 1 1 0 0 0 0 0 0 0 0 0 0 1 1 1 1 1 1 1 1 1 1 1 1 1 1 1 1 1 1 1 1 1 1 1 1 1 2 1 1 1
1 1 1 0 0 0 0 0 0 0 0 0 0 0 0 1 1 1 1 1 1 1 1 1 1 1 1 1 1 1 1 1 1 1 1 1 1 1 1 1 2 1 1
1 1 0 0 0 0 0 0 0 0 0 0 0 0 0 1 1 1 1 1 1 1 1 1 1 1 1 1 1 1 1 1 1 1 1 1 1 1 1 1 2 2 2
0 0 0 0 0 0 0 0 0 0 0 0 0 0 0 1 1 1 1 1 1 1 1 1 1 1 1 1 1 0 0 0 0 1 1 1 1 1 1 1 2 2 2
0 0 0 0 0 0 0 0 0 0 0 0 0 0 0 0 1 1 1 0 0 0 0 1 1 1 1 1 0 0 0 0 0 0 1 1 1 1 1 1 2 2 2
0 0 0 0 0 0 0 0 1 1 0 0 0 0 0 0 1 1 0 0 0 0 0 0 0 0 0 0 0 0 0 0 0 0 0 1 1 1 1 1 1 2 2
0 0 0 0 0 0 0 1 1 1 0 0 0 0 0 0 0 0 0 0 0 0 0 0 0 0 0 0 0 0 0 0 0 0 0 1 1 1 1 1 1 1 1
0 0 0 0 0 0 1 1 1 1 1 0 0 0 0 0 0 0 0 0 0 0 0 0 0 0 0 0 0 0 0 0 0 0 0 1 1 1 1 1 1 1 1
0 0 0 0 0 0 1 1 1 1 0 0 0 0 1 0 0 0 0 0 0 0 0 0 0 0 0 0 0 0 0 0 0 0 0 1 1 1 1 1 1 1 1
0 0 0 0 0 0 1 1 1 0 0 0 0 1 1 0 0 0 0 0 0 0 0 0 0 0 0 0 0 0 0 0 0 0 0 1 1 1 1 1 1 1 1
0 0 0 0 0 0 0 0 0 0 0 0 0 1 1 0 0 0 0 0 0 0 0 0 0 0 0 0 0 0 0 0 0 0 0 1 1 1 1 1 1 1 1
0 0 0 0 0 0 0 0 0 0 0 0 0 0 1 0 0 0 0 0 0 0 0 0 0 0 0 0 0 0 0 0 0 0 0 0 0 0 0 1 1 1 1
0 0 0 0 0 0 0 0 0 0 0 0 0 0 0 1 1 1 0 0 0 0 0 0 0 0 0 0 0 0 0 0 0 0 0 0 0 0 0 0 1 1 1
0 0 0 0 0 0 0 0 0 0 0 0 0 0 0 1 1 1 1 0 0 0 0 0 0 0 0 0 0 0 0 0 0 0 0 0 0 0 0 0 1 1 1
0 0 0 0 0 0 0 0 0 0 0 0 0 0 0 1 1 1 1 0 0 0 0 0 0 0 0 0 0 0 0 0 0 0 0 0 0 0 0 0 1 1 1
0 0 0 0 0 0 0 0 0 0 0 0 0 0 1 1 1 1 0 0 0 0 0 0 0 0 0 0 0 0 0 0 0 0 0 0 0 0 0 0 1 1 1
0 0 0 0 0 0 0 0 0 0 0 0 0 0 1 1 1 0 0 0 0 0 0 0 0 0 0 0 0 0 0 0 0 0 0 0 0 0 0 0 0 0 0
0 0 0 0 0 0 0 0 0 0 0 0 0 0 1 0 0 0 0 0 0 0 0 0 0 0 0 0 0 0 0 0 0 0 0 0 0 0 0 0 0 0 0
0 0 0 0 0 0 0 0 0 0 0 0 0 0 0 0 0 0 0 0 0 0 0 0 0 0 0 0 0 0 0 0 0 0 0 0 0 0 0 0 0 0 0
0 0 0 0 0 0 0 0 0 0 0 0 0 0 0 0 0 0 0 0 0 0 0 0 0 0 0 0 0 0 0 0 0 0 0 0 0 0 0 0 0 0 0
0 0 0 0 0 0 0 0 0 0 0 0 0 0 0 0 0 0 0 0 0 0 0 0 0 0 0 0 0 0 0 0 0 0 0 0 0 0 0 0 0 0 0
1 0 0 0 0 0 0 0 0 0 0 0 0 0 0 0 0 0 0 0 0 0 0 0 0 0 0 0 0 0 0 0 1 1 0 0 0 1 0 0 0 0 0
1 1 0 0 0 0 0 0 0 0 0 0 0 0 0 0 0 0 0 0 0 0 0 0 0 0 0 0 0 0 0 1 1 1 0 0 0 0 0 0 0 0 0
1 1 0 0 0 0 0 0 0 0 0 0 0 0 0 0 0 0 0 0 0 0 0 0 0 0 0 0 0 0 0 0 0 0 0 0 0 0 0 0 0 0 0
1 1 0 0 0 0 0 0 0 0 0 0 0 0 0 0 0 0 0 0 0 0 0 0 0 0 0 0 0 0 0 0 0 0 0 0 0 0 0 0 0 0 0
1 1 0 0 0 0 0 0 0 0 0 0 0 0 0 0 0 0 0 0 0 0 0 0 0 0 0 0 0 0 0 0 0 0 0 0 0 0 0 0 0 0 0
Wind_Speed
4 4 4 4 4 4 4 4 4 5 5 6 6 6 6 6 6 5 5 9 9 9 9 9 9 9 10 9 9 9 9 9 8 8 8 8 7 7 6 6 6 5 4
4 4 4 4 4 4 4 3 4 4 4 4 5 6 6 5 5 5 5 6 10 10 9 9 9 9 9 9 9 9 9 8 8 8 7 7 7 7 6 6 5 5 5
4 4 4 4 4 4 4 4 4 3 4 4 5 5 5 5 4 5 5 4 5 8 9 10 9 9 9 9 8 8 8 8 8 7 7 7 7 7 6 6 6 5 5
5 4 3 4 4 3 3 3 3 3 3 3 3 3 3 3 4 5 4 4 4 4 6 9 9 9 9 9 8 7 7 7 7 7 7 7 7 6 6 5 5 5 5
4 4 3 3 4 3 3 3 3 3 3 3 2 2 3 3 3 3 4 4 4 4 4 5 7 8 8 9 8 8 7 7 6 6 7 7 7 6 6 5 5 5 5
4 3 2 4 4 3 3 3 3 3 2 2 1 2 2 2 2 3 3 3 3 4 4 4 3 4 7 8 8 8 7 7 6 6 6 6 6 6 6 5 5 4 4
3 3 2 3 3 3 3 4 3 3 3 2 1 1 2 2 2 2 2 2 3 3 3 3 3 2 2 4 7 8 8 7 6 6 6 6 6 6 6 5 4 4 4
2 2 2 2 2 2 3 3 3 2 2 2 2 1 0 2 2 2 2 2 2 2 3 3 3 3 3 2 4 6 7 7 7 6 5 5 5 6 5 5 4 4 3
2 2 2 2 2 2 2 2 2 2 2 2 3 3 2 1 1 1 2 2 3 3 3 3 3 3 3 3 2 4 7 7 7 6 5 5 5 5 5 5 4 3 3
2 2 1 1 1 1 1 1 2 2 2 2 1 2 3 3 2 0 1 2 2 2 2 2 3 3 3 3 3 5 6 6 6 6 6 5 5 5 5 5 4 3 3
1 1 1 1 1 1 1 1 1 2 1 2 2 2 1 1 3 2 1 2 2 2 2 2 2 2 3 3 3 5 6 5 5 5 5 5 5 5 5 4 4 3 3
0 1 1 1 1 1 2 2 1 1 1 1 2 1 1 2 2 2 2 2 2 2 2 2 2 2 2 2 3 5 5 5 5 5 5 5 6 5 5 4 4 3 3
0 1 1 1 2 2 1 1 1 2 1 2 2 2 1 2 2 2 2 2 3 2 1 1 1 2 2 2 2 4 2 3 4 4 5 5 6 6 6 5 4 3 3
1 1 1 2 2 2 1 1 2 2 2 2 2 2 2 2 2 2 2 2 2 2 2 1 1 1 2 2 3 3 1 2 3 4 4 5 5 5 5 5 4 3 3
1 1 1 1 1 1 1 2 1 2 2 2 2 2 2 1 2 2 2 2 3 3 3 1 1 2 2 2 2 3 2 2 2 3 4 5 5 5 5 4 4 3 3
1 1 1 1 1 1 1 1 2 2 2 2 2 3 2 2 2 2 2 3 3 3 3 2 2 2 2 2 2 3 3 2 2 3 4 5 4 5 4 4 4 3 3
1 1 1 1 1 1 1 1 2 2 2 2 2 2 2 2 2 2 2 2 2 3 3 3 2 2 2 2 2 3 2 2 1 2 4 5 5 4 4 4 4 3 2
1 1 1 1 1 1 2 1 2 2 2 2 2 2 2 1 2 2 2 2 2 3 3 3 3 2 3 3 3 3 3 2 2 1 4 5 4 4 3 3 3 3 2
1 1 1 1 1 1 1 2 2 2 2 2 2 2 2 2 2 2 2 2 2 2 2 3 3 2 2 2 3 3 3 3 3 2 3 3 3 3 3 4 2 2 3
2 1 1 1 1 1 2 2 2 2 2 2 2 2 2 2 3 2 2 2 2 2 2 2 2 2 2 2 3 3 3 2 3 3 2 2 2 4 4 3 3 3 3
2 1 1 1 1 1 2 2 2 2 2 2 2 2 2 3 4 4 3 3 2 2 1 2 2 2 2 2 2 3 4 3 3 2 2 2 2 3 2 3 3 3 3
1 1 1 1 1 1 2 3 3 2 2 2 2 2 1 1 2 2 3 4 4 3 3 2 2 3 3 3 3 3 4 4 3 2 3 3 3 3 2 2 1 1 3
2 1 1 1 1 0 1 1 3 3 2 2 2 2 2 1 2 2 2 3 3 3 4 3 3 4 4 3 4 4 4 4 4 3 3 4 3 3 3 1 2 0 2
2 2 2 2 1 0 0 1 3 3 2 2 2 2 2 2 2 3 2 2 2 2 2 3 3 3 4 4 4 4 5 4 4 2 2 4 3 3 3 2 2 1 2
3 3 2 2 2 1 0 2 4 3 2 2 1 2 2 2 4 4 2 2 2 1 1 3 4 4 4 5 4 3 2 3 3 2 2 3 3 3 3 3 1 2 2
3 2 2 2 2 2 0 1 4 2 2 1 1 1 2 3 4 3 2 2 2 2 1 1 1 1 2 1 2 3 2 3 3 2 1 2 2 2 3 2 1 1 1
Wind_Direction
51 50 51 49 45 44 44 39 40 47 51 51 52 52 51 48 48 50 63 56 48 49 56 59 61 61 59 59 62 63 61 57 54 49 45 44 45 44 46 46 55 61 71
52 47 51 47 42 38 39 40 47 47 52 50 48 47 46 46 48 50 54 66 57 52 52 54 58 58 56 56 57 58 56 51 49 47 46 45 44 42 46 48 54 56 65
53 50 47 49 41 37 39 39 47 47 56 56 52 45 44 38 41 49 48 47 63 61 53 49 51 53 52 50 52 52 50 48 44 43 42 42 42 41 47 48 55 56 60
57 53 47 45 39 39 38 43 36 45 49 45 48 46 48 42 37 44 50 52 48 53 61 51 46 44 44 43 43 43 43 42 39 39 40 40 41 38 44 47 53 55 56
53 61 47 38 41 41 39 40 44 38 46 40 52 51 49 49 39 39 47 45 47 45 52 65 53 43 38 36 33 32 32 33 34 35 39 37 37 37 38 48 52 52 53
51 56 56 45 42 43 37 37 48 47 40 17 50 66 58 63 53 39 34 39 38 45 42 43 48 62 45 32 27 24 23 24 25 29 34 33 31 31 30 41 45 46 47
53 54 46 49 38 43 37 34 34 46 41 5 327 104 113 88 58 51 31 28 39 38 39 40 26 22 51 46 28 20 17 14 17 19 20 26 27 26 29 31 35 36 38
55 46 36 46 43 39 40 36 27 13 42 15 332 307 177 139 82 51 38 29 34 38 32 30 22 21 5 13 41 20 9 7 8 11 14 18 24 24 26 29 31 28 35
47 38 26 33 32 28 34 23 15 6 1 21 6 341 328 360 13 74 39 30 25 24 23 19 10 13 12 4 7 23 8 4 1 3 5 17 21 20 21 22 26 22 30
43 31 22 8 20 20 19 2 7 345 334 347 14 358 350 354 310 327 80 31 14 11 7 5 1 2 2 358 10 15 6 360 357 358 3 9 12 11 10 8 6 7 16
33 25 21 359 349 351 346 352 354 335 328 326 336 338 342 317 303 301 313 341 347 355 352 346 347 354 357 353 350 21 15 4 355 358 359 2 2 1 -0 2 3 358 1
353 1 351 342 336 337 338 336 323 306 295 302 301 311 320 315 318 310 302 316 329 338 333 347 341 1 353 353 16 27 16 6 360 1 359 358 357 351 351 352 353 353 348
294 328 339 330 336 337 338 321 310 289 273 273 286 302 313 310 313 306 300 313 316 313 313 310 354 354 350 350 25 15 12 2 357 359 359 359 356 349 345 341 338 340 347
305 339 337 342 348 349 350 330 290 285 280 268 281 288 290 303 305 298 299 305 301 301 302 339 350 354 346 343 11 324 1 30 2 355 353 351 348 347 343 342 342 343 339
252 275 282 314 331 331 334 323 301 289 291 293 291 292 284 285 284 294 282 278 287 296 307 327 335 351 339 332 348 310 319 36 4 349 346 340 343 346 341 335 341 347 346
228 230 252 268 287 287 283 297 293 310 298 301 301 302 308 305 311 294 282 282 280 283 291 321 320 328 339 323 332 313 332 14 330 332 332 332 336 337 341 345 338 346 345
216 223 249 284 288 285 274 258 278 296 298 312 318 320 315 319 306 297 288 281 276 275 279 302 311 318 315 311 319 306 310 294 294 324 317 320 319 321 324 340 345 340 335
212 219 229 255 277 282 278 270 270 282 296 307 317 317 315 315 295 299 292 285 284 276 274 293 302 305 304 304 308 306 305 300 296 337 301 304 306 310 312 327 335 342 344
202 217 230 255 279 283 276 279 280 292 301 305 311 304 306 305 297 298 286 285 284 283 283 285 297 303 296 306 303 302 301 301 295 289 268 266 283 296 297 298 314 330 330
205 217 236 262 281 280 273 280 287 294 297 299 296 298 297 293 299 307 295 294 286 281 278 283 293 296 298 307 296 298 298 291 291 296 294 296 280 264 265 269 285 298 302
212 217 227 249 273 291 315 305 294 287 290 290 294 305 330 337 344 331 315 308 300 285 272 272 275 283 292 299 302 301 302 298 293 300 300 291 273 265 245 232 245 281 285
208 212 231 245 270 296 4 334 306 289 284 285 295 300 306 293 332 317 325 318 310 298 290 276 266 270 277 290 296 294 300 299 297 319 302 296 289 288 283 280 53 320 292
210 226 237 245 260 333 44 340 314 294 291 299 295 300 299 292 284 291 273 266 284 293 289 284 279 281 287 296 292 293 294 297 301 314 296 289 291 289 292 318 87 203 298
211 223 227 226 249 303 52 296 300 274 282 291 289 284 295 298 311 310 298 298 307 310 295 287 294 298 307 311 299 289 291 295 295 308 298 288 298 296 298 286 139 192 269
215 222 226 233 239 235 179 284 286 274 278 295 309 324 316 310 336 317 293 282 276 283 355 321 326 329 339 332 316 293 302 296 294 298 309 287 294 304 293 275 167 172 242
220 224 229 237 240 251 208 266 280 261 265 281 292 311 2 338 339 324 277 278 283 301 296 280 284 280 288 307 303 296 302 295 298 300 350 307 306 315 296 280 296 286 260